Time,TemperatureF,DewpointF,PressureIn,WindDirection,WindDirectionDegrees,WindSpeedMPH,WindSpeedGustMPH,Humidity,HourlyPrecipIn,Conditions,Clouds,dailyrainin,SoftwareType,DateUTC
2015-04-28 00:41:00,39.0,33.0,-100.00,West,275,0.0,0.0,80,-99.99,,,-99.99,,2015-04-28 04:41:00,
2015-04-28 01:11:00,38.0,33.0,-100.00,WNW,295,0.0,0.0,82,-99.99,,,-99.99,,2015-04-28 05:11:00,
2015-04-28 01:23:00,38.0,34.0,-100.00,NW,305,0.0,1.0,85,-99.99,,,-99.99,,2015-04-28 05:23:00,
2015-04-28 01:31:00,38.0,34.0,-100.00,NNE,20,0.0,0.0,86,-99.99,,,-99.99,,2015-04-28 05:31:00,
2015-04-28 01:42:00,37.0,34.0,-100.00,NW,305,0.0,0.0,87,-99.99,,,-99.99,,2015-04-28 05:42:00,
2015-04-28 01:51:00,37.0,34.0,-100.00,NW,305,0.0,0.0,87,-99.99,,,-99.99,,2015-04-28 05:51:00,
2015-04-28 02:02:00,38.0,34.0,-100.00,WNW,300,0.0,0.0,86,-99.99,,,-99.99,,2015-04-28 06:02:00,
2015-04-28 02:12:00,38.0,34.0,-100.00,WNW,300,0.0,1.0,86,-99.99,,,-99.99,,2015-04-28 06:12:00,
2015-04-28 02:32:00,38.0,34.0,-100.00,WNW,300,0.0,0.0,87,-99.99,,,-99.99,,2015-04-28 06:32:00,
2015-04-28 02:42:00,38.0,34.0,-100.00,NNE,15,0.0,0.0,86,-99.99,,,-99.99,,2015-04-28 06:42:00,
2015-04-28 02:51:00,38.0,35.0,-100.00,NE,45,0.0,0.0,88,-99.99,,,-99.99,,2015-04-28 06:51:00,
2015-04-28 03:01:00,38.0,35.0,-100.00,NE,45,0.0,0.0,88,-99.99,,,-99.99,,2015-04-28 07:01:00,
2015-04-28 03:11:00,37.0,34.0,-100.00,NW,310,0.0,0.0,89,-99.99,,,-99.99,,2015-04-28 07:11:00,
2015-04-28 03:21:00,37.0,34.0,-100.00,NW,310,0.0,0.0,89,-99.99,,,-99.99,,2015-04-28 07:21:00,
2015-04-28 03:41:00,36.0,33.0,-100.00,WNW,285,0.0,0.0,90,-99.99,,,-99.99,,2015-04-28 07:41:00,
2015-04-28 04:01:00,35.0,33.0,-100.00,SW,235,0.0,0.0,92,-99.99,,,-99.99,,2015-04-28 08:01:00,
2015-04-28 04:31:00,34.0,32.0,-100.00,NNW,330,0.0,0.0,92,-99.99,,,-99.99,,2015-04-28 08:31:00,
2015-04-28 04:42:00,34.0,32.0,-100.00,NW,315,0.0,1.0,93,-99.99,,,-99.99,,2015-04-28 08:42:00,
2015-04-28 05:01:00,34.0,32.0,-100.00,NNE,30,0.0,0.0,93,-99.99,,,-99.99,,2015-04-28 09:01:00,
2015-04-28 06:21:00,33.0,32.0,-100.00,West,265,0.0,0.0,94,-99.99,,,-99.99,,2015-04-28 10:21:00,
2015-04-28 06:31:00,34.0,32.0,-100.00,South,175,0.0,0.0,94,-99.99,,,-99.99,,2015-04-28 10:31:00,
2015-04-28 06:41:00,33.0,32.0,-100.00,South,175,0.0,0.0,94,-99.99,,,-99.99,,2015-04-28 10:41:00,
2015-04-28 07:02:00,33.0,31.0,-100.00,South,175,0.0,0.0,94,-99.99,,,-99.99,,2015-04-28 11:02:00,
2015-04-28 07:32:00,35.0,33.0,-100.00,SW,230,0.0,0.0,94,-99.99,,,-99.99,,2015-04-28 11:32:00,
2015-04-28 07:42:00,35.0,33.0,-100.00,WSW,245,0.0,0.0,93,-99.99,,,-99.99,,2015-04-28 11:42:00,
2015-04-28 08:12:00,37.0,35.0,-100.00,West,260,0.0,1.0,91,-99.99,,,-99.99,,2015-04-28 12:12:00,
2015-04-28 08:42:00,41.0,34.0,-100.00,West,275,1.0,3.0,76,-99.99,,,-99.99,,2015-04-28 12:42:00,
2015-04-28 09:02:00,42.0,34.0,-100.00,NW,315,1.0,3.0,74,-99.99,,,-99.99,,2015-04-28 13:02:00,
2015-04-28 09:21:00,44.0,35.0,-100.00,NNE,25,1.0,3.0,71,-99.99,,,-99.99,,2015-04-28 13:21:00,
2015-04-28 09:31:00,45.0,35.0,-100.00,NE,45,1.0,3.0,68,-99.99,,,-99.99,,2015-04-28 13:31:00,
2015-04-28 10:51:00,52.0,34.0,-100.00,NE,40,3.0,7.0,49,-99.99,,,-99.99,,2015-04-28 14:51:00,
2015-04-28 11:01:00,52.0,34.0,-100.00,NE,35,4.0,9.0,49,-99.99,,,-99.99,,2015-04-28 15:01:00,
2015-04-28 11:21:00,53.0,34.0,-100.00,East,95,3.0,7.0,48,-99.99,,,-99.99,,2015-04-28 15:21:00,
2015-04-28 11:31:00,52.0,34.0,-100.00,East,100,2.0,6.0,49,-99.99,,,-99.99,,2015-04-28 15:31:00,
2015-04-28 11:41:00,53.0,33.0,-100.00,NW,325,3.0,6.0,46,-99.99,,,-99.99,,2015-04-28 15:41:00,